Weather History for KBRL - August, 2013

Change the Weather History Date:

Saturday, August 31, 2013

  Actual Average Record
Temperature  
Mean Temperature 82 °F 73 °F  
Max Temperature 90 °F 83 °F 99 °F (1953)
Min Temperature 73 °F 63 °F 44 °F (1967)
Degree Days  
Heating Degree Days 0 0  
Month to date heating degree days 3 0  
Since 1 June heating degree days 26 17  
Since 1 July heating degree days 11 4  
Cooling Degree Days 17 8  
Month to date cooling degree days 297 314  
Year to date cooling degree days 901 1043  
Since 1 June cooling degree days 802 940  
Growing Degree Days 31 (Base 50)    
Moisture  
Dew Point 71 °F    
Average Humidity 72    
Maximum Humidity 87    
Minimum Humidity 56    
Precipitation  
Precipitation 0.00 in 0.15 in 2.13 in (2003)
Month to date precipitation T 4.27  
Year to date precipitation 27.06 27.25  
Sea Level Pressure  
Sea Level Pressure 29.77 in    
Wind  
Wind Speed 4 mph (NNW)    
Max Wind Speed 12 mph    
Max Gust Speed 15 mph    
Visibility 10 miles    
Events      
T = Trace of Precipitation, MM = Missing Value Source: NWS Daily Summary

Daily Weather History Graph

Daily Weather History Graph

Search for Another Location

Airport or City:

Trip Planner

Search our weather history database for the weather conditions in past years. The results will help you decide how hot, cold, wet, or windy it might be!

Date:

Astronomy

Aug. 31, 2013 Rise Set
Actual Time 6:30 AM CDT 7:37 PM CDT
Civil Twilight 6:02 AM CDT 8:06 PM CDT
Nautical Twilight 5:28 AM CDT 8:39 PM CDT
Astronomical Twilight 4:53 AM CDT 9:14 PM CDT
Moon 1:58 AM CDT (8/31) 4:37 PM CDT (8/31)
Length of Visible Light 14h 03m
Length of Day
13h 07m
Waning Crescent, 21% of the Moon is Illuminated
Aug 31
Waning Crescent
Sep 5
New
Sep 12
First Quarter
Sep 19
Full
Sep 26
Last Quarter

Hourly Weather History & Observations

Time (CDT) Temp. Heat Index Dew Point Humidity Pressure Visibility Wind Dir Wind Speed Gust Speed Precip Events Conditions
12:53 AM 79.0 °F - 71.1 °F 77% 29.76 in 10.0 mi SSW 4.6 mph - N/A   Partly Cloudy
1:53 AM 77.0 °F - 71.1 °F 82% 29.77 in 10.0 mi Calm Calm - N/A   Clear
2:53 AM 77.0 °F - 70.0 °F 79% 29.75 in 10.0 mi SSW 4.6 mph - N/A   Clear
3:53 AM 77.0 °F - 70.0 °F 79% 29.76 in 10.0 mi Calm Calm - N/A   Clear
4:53 AM 75.0 °F - 70.0 °F 84% 29.75 in 10.0 mi Calm Calm - N/A   Clear
5:53 AM 75.0 °F - 70.0 °F 84% 29.75 in 10.0 mi WSW 3.5 mph - N/A   Clear
6:53 AM 73.9 °F - 70.0 °F 87% 29.77 in 10.0 mi South 3.5 mph - N/A   Scattered Clouds
7:53 AM 78.1 °F - 72.0 °F 81% 29.76 in 10.0 mi Calm Calm - N/A   Clear
8:53 AM 80.1 °F 83.6 °F 71.1 °F 74% 29.77 in 10.0 mi Calm Calm - N/A   Clear
9:53 AM 82.9 °F 88.8 °F 73.0 °F 72% 29.78 in 10.0 mi Calm Calm - N/A   Clear
10:53 AM 87.1 °F 94.5 °F 73.0 °F 63% 29.78 in 10.0 mi NNW 8.1 mph - N/A   Clear
11:53 AM 88.0 °F 94.7 °F 72.0 °F 59% 29.78 in 10.0 mi NNW 8.1 mph - N/A   Clear
12:53 PM 87.1 °F 92.8 °F 71.1 °F 59% 29.78 in 9.0 mi North 5.8 mph - N/A   Clear
1:53 PM 88.0 °F 94.7 °F 72.0 °F 59% 29.79 in 10.0 mi NW 8.1 mph - N/A   Scattered Clouds
2:53 PM 87.1 °F 93.6 °F 72.0 °F 61% 29.78 in 9.0 mi North 8.1 mph - N/A   Clear
3:53 PM 88.0 °F 94.7 °F 72.0 °F 59% 29.77 in 10.0 mi NW 4.6 mph - N/A   Clear
4:53 PM 89.1 °F 96.0 °F 72.0 °F 57% 29.76 in 10.0 mi NNW 5.8 mph - N/A   Clear
5:53 PM 88.0 °F 94.7 °F 72.0 °F 59% 29.75 in 8.0 mi North 5.8 mph - N/A   Clear
6:53 PM 84.9 °F 90.7 °F 72.0 °F 65% 29.75 in 10.0 mi North 6.9 mph - N/A   Clear
7:53 PM 80.1 °F 83.8 °F 72.0 °F 76% 29.77 in 10.0 mi North 6.9 mph - N/A   Clear
8:53 PM 80.1 °F 83.8 °F 72.0 °F 76% 29.79 in 10.0 mi ENE 8.1 mph - N/A   Clear
9:53 PM 77.0 °F - 71.1 °F 82% 29.81 in 9.0 mi ENE 5.8 mph - N/A   Clear
10:53 PM 75.9 °F - 70.0 °F 82% 29.79 in 10.0 mi NE 5.8 mph - N/A   Clear
11:53 PM 75.0 °F - 70.0 °F 84% 29.79 in 10.0 mi Calm Calm - N/A   Clear